Voltar ao catálogo

OPS 7044

VELA 12

LostMilitarHEO
NORAD 4366·PAYLOAD·🇺🇸 United States

Lançado Apr 8, 1970 de Cape Canaveral Space Force Station

Loading…

Próximas Passagens (próximas 24 horas)

TLE

ObsoletoSource: Space-Track

Época: Jun 11, 2025, 21:23 UTC

1 04366U 70027A   25162.89116127 -.00000305  00000-0  00000-0 0  9995
2 04366  87.5969   0.9935 7753526  72.3352   1.1488  0.21456810 40573

Acompanhe OPS 7044 em tempo real com AllMySat

Download on the App Store